Tracking 31027 objects as of 19-Jul-2025
HD Live streaming from Space Station
objects crossing your sky now

ONEWEB-0646

Track ONEWEB-0646 now!
10-day predictions
ONEWEB-0646 is classified as:


NORAD ID: 55810
Int'l Code: 2023-029Q
Perigee: 1,191.4 km
Apogee: 1,194.4 km
Inclination: 87.9 °
Period: 109.1 minutes
Semi major axis: 7563 km
RCS: Unknown
Launch date: March 9, 2023
Source: United Kingdom (UK)
Launch site: AIR FORCE EASTERN TEST RANGE (AFETR)
Your satellite tracking list
SL-12 R/B(AUX MOTOR)
Track 1 satellite(s)




NASA's NSSDC Master Catalog

Two Line Element Set (TLE):
1 55810U 23029Q   25199.52568662  .00000044  00000-0  78248-4 0  9992
2 55810  87.9206  11.3116 0001974  85.3202 274.8156 13.19724016114886
Source of the keplerian elements: AFSPC